OneWeb SL0315

operational
NORAD ID: 49101 Int'l Des: 2021-075 Owner: ONEWEBN Country: UK Constellation: oneweb
LEOCIRCULARPOLARONEWEB_TYPE

Über OneWeb SL0315

Beschreibung wird geladen...

Live-Position

3D-Globus wird geladen...

Nächste Überflüge

Höhenverlauf

Altitude vs Time

uPlot chart will show altitude changes over time

Zweizeiliger Elementsatz

1 49101U 21075AC 25258.14570533 -.00000155 00000-0 -46761-3 0 9990
2 49101 87.8898 45.2868 0002013 89.7625 270.3734 13.12443644199097
Epoch: 15. Sept. 2025 • Age: 16 hours

Aktueller Status

Höhe 1229.4 km
Geschwindigkeit 7.24 km/s
Subsatellitenpunkt -38.64°S, 111.93°E
Startdatum 21. Aug. 2021
Alter 4 years
Typ internet

Technische Details

Klassifizierung Payload
Masse 148.00 kg
Trockenmasse 140.00 kg
Gesamtmasse 148.00 kg
Länge 1.30 m
Durchmesser 1.00 m
Spannweite 5.00 m
Form Trapezoid+2 pan
Hersteller ONEWUS
Bus-Typ ARROW
Phasenstatus In Orbit
Besitzer/Staat ONEWEBN/UK

Große Konstellationen

Loading constellations...